Location: ?ern� Novina
(50.6762°N, 14.8696°E)
Time: 15:51:30
(UTC+00:00)

USA 305 - Pass Details

Date: 03 March 2021
Orbit: 567 x 574 km, 54.0° (Epoch: 13 April)

Event Time Altitude Azimuth Distance (km) Brightness Sun altitude
Rises 18:05:56 0° 274° (W) 2,780 8.5 -13.5°
Reaches altitude 10° 18:08:15 10° 279° (W) 1,881 7.0 -13.9°
Maximum altitude 18:12:27 54° 357° (N) 700 3.4 -14.5°
Enters shadow 18:14:59 22° 67° (ENE) 1,266 4.2 -14.9°
